Location: Caltech
(34.1382°N, 118.1253°W)
Time: 15:07:07
(UTC-07:00)

KITSAT 1 - Visible Passes

Search period start: 19 April 2014 00:00
Search period end: 29 April 2014 00:00
Orbit: 1306 x 1325 km, 66.1° (Epoch: 18 April)

Date Brightness Start Highest point End Pass type
(mag) Time Alt. Az. Time Alt. Az. Time Alt. Az.
19 Apr 10.2 02:59:09 74° E 02:59:09 74° E 03:07:00 10° NNE visible
19 Apr 11.5 04:51:07 17° W 04:55:02 24° NW 05:01:21 10° N visible
20 Apr 12.1 01:22:53 17° E 01:22:53 17° E 01:25:43 10° ENE visible
20 Apr 10.1 03:14:51 76° WNW 03:14:58 76° WNW 03:23:07 10° NNE visible
20 Apr 11.9 05:06:53 10° W 05:11:45 17° NW 05:16:39 10° N visible
21 Apr 11.6 01:38:33 26° ENE 01:38:33 26° ENE 01:43:01 10° NE visible
21 Apr 10.4 03:30:31 51° WNW 03:31:10 52° WNW 03:39:04 10° NNE visible
21 Apr 12.1 05:26:15 10° NW 05:28:41 11° NW 05:31:07 10° NNW visible
22 Apr 11.1 01:54:11 40° ENE 01:54:11 40° ENE 01:59:42 10° NE visible
22 Apr 11.0 03:46:09 34° WNW 03:47:32 36° NW 03:54:52 10° NNE visible
23 Apr 10.6 02:09:46 56° NE 02:09:46 56° NE 02:16:03 10° NNE visible
23 Apr 11.4 04:01:44 22° WNW 04:04:03 25° NW 04:10:28 10° N visible
24 Apr 12.3 00:33:20 13° ENE 00:33:20 13° ENE 00:34:39 10° ENE visible
24 Apr 10.4 02:25:18 65° N 02:25:18 65° N 02:32:12 10° NNE visible
24 Apr 11.9 04:17:16 13° WNW 04:20:46 17° NW 04:25:47 10° N visible
25 Apr 11.9 00:48:51 22° ENE 00:48:51 22° ENE 00:52:01 10° NE visible
25 Apr 10.6 02:40:49 52° NW 02:40:49 52° NW 02:48:09 10° NNE visible
25 Apr 12.2 04:34:59 10° NW 04:37:40 12° NW 04:40:22 10° NNW visible
26 Apr 11.4 01:04:19 32° ENE 01:04:19 32° ENE 01:08:44 10° NE visible
26 Apr 11.0 02:56:17 36° WNW 02:56:34 37° NW 03:03:57 10° NNE visible
27 Apr 11.0 01:19:45 45° NE 01:19:45 45° NE 01:25:07 10° NNE visible
27 Apr 11.5 03:11:42 24° WNW 03:13:05 25° NW 03:19:34 10° N visible
27 Apr 12.3 23:43:11 11° ENE 23:43:11 11° ENE 23:43:35 10° ENE visible
28 Apr 10.7 01:35:08 55° NNE 01:35:08 55° NNE 01:41:16 10° NNE visible
28 Apr 11.9 03:27:06 15° WNW 03:29:46 18° NW 03:34:55 10° N visible
28 Apr 11.9 23:58:32 19° ENE 23:58:32 19° ENE 00:00:00 14° NE visible
